sat.trackr.live / text

‹ back to catalog

STARLINK-30341

NORAD 57714 · 2023-129S

PAYLOAD ACTIVE UNKNOWN

§ Identity

Operator
Country
US
Launch date
2023-08-27
Launch site
AFETR
Launch vehicle
Mass (kg)
RCS (m²)

Purposes: comms

External: N2YO · Heavens-Above · Gunter

§ Orbital elements

Epoch: 2026-05-25T03:03:14.317056Z

Period
94.27 min
Inclination
43.0055°
Eccentricity
0.0001576
Mean motion
15.27598503 rev/d
Perigee alt
481.9 km
Apogee alt
484.1 km
Semi-major
6,861.1 km
B*
1.1834e-4
RAAN
49.5378°
Arg perigee
243.5618°
Mean anomaly
116.5072°
Rev number
15,233

§ Raw data

STARLINK-303411 57714U 23129S   26145.12724904  .00002997  00000+0  11834-3 0  99942 57714  43.0055  49.5378 0001576 243.5618 116.5072 15.27598503152338

JSON: /api/v1/satellites/57714 · /tle

For live sub-satellite position, see the globe view (requires WebGL).

§ Visibility from observer

Set your observer location to see the next 7 days of passes ≥ 10°. The values pass through the URL so the page stays shareable.

No JS? Fill the form by hand. The geolocation button needs JavaScript.